{"data":{"norad_id":55287,"intl_designator":"2023-010U","name":"STARLINK-5341","alt_names":[],"object_type":"PAYLOAD","status":"ACTIVE","operator":null,"country":"US","launch_date":"2023-01-19","launch_site_code":"AFWTR","launch_vehicle":null,"mission":null,"orbit_class":"UNKNOWN","rcs_meters":null,"size_class":null,"mass_kg":null,"dimensions":null,"purposes":["comms"],"wikipedia_slug":null,"has_3d_model":false,"image_url":null,"decayed_at":null,"tle_current":{"epoch":"2026-09-20T22:00:03.000096Z","epoch_age_seconds":57418,"freshness":"FRESH","line1":"1 55287U 23010U   26263.91670139  .00056806  00000+0  35883-2 0  9991","line2":"2 55287  70.0004 232.2359 0003662 277.4220  58.3340 15.08744669  5667","mean_motion":15.08744669,"eccentricity":0.0003662,"inclination_deg":70.0004,"raan_deg":232.2359,"arg_perigee_deg":277.422,"mean_anomaly_deg":58.334,"bstar":0.0035883,"rev_number":566,"period_min":95.443584960896,"perigee_km":537.50135852562,"apogee_km":542.56822754684,"semimajor_km":6918.1717930362,"source":"CELESTRAK","updated_at":"2026-09-21T09:00:33.168236Z"}}}